N244BR KLAX-

Flight info

Callsign N244BR
Flight time N/A
Altitude 17500
Route E
Aircraft C25C/M-VGD/A

Departure

Time 2026-04-21 03:31
Airport Los Angeles International Airport (KLAX)

Arrival

Time N/A
Airport -
Time Latitude Longitude Altitude Speed Heading
2026-04-21 03:29 33.93656 -118.38278 119 ft 0 kts 352°
2026-04-21 03:30 33.93659 -118.38278 119 ft 6 kts 352°
2026-04-21 03:30 33.93729 -118.38340 119 ft 22 kts 276°
2026-04-21 03:30 33.93690 -118.38721 119 ft 92 kts 263°
2026-04-21 03:30 33.93571 -118.39893 128 ft 184 kts 263°
2026-04-21 03:31 33.93387 -118.41632 644 ft 228 kts 262°
2026-04-21 03:31 33.93149 -118.43581 1799 ft 252 kts 261°
2026-04-21 03:31 33.92881 -118.45758 2930 ft 246 kts 263°
2026-04-21 03:31 33.92734 -118.47621 3858 ft 214 kts 266°
2026-04-21 03:32 33.92618 -118.49439 3884 ft 222 kts 262°
2026-04-21 03:32 33.92235 -118.51219 3955 ft 227 kts 249°
2026-04-21 03:32 33.91516 -118.52971 3738 ft 242 kts 239°
2026-04-21 03:32 33.90529 -118.54706 3545 ft 252 kts 235°
2026-04-21 03:33 33.89515 -118.56454 2993 ft 271 kts 236°
2026-04-21 03:33 33.88454 -118.58359 2857 ft 261 kts 237°
2026-04-21 03:33 33.87555 -118.60112 3156 ft 237 kts 240°
2026-04-21 03:33 33.86784 -118.61878 2848 ft 241 kts 241°
2026-04-21 03:34 33.85900 -118.63634 2430 ft 249 kts 238°
2026-04-21 03:34 33.84994 -118.65417 2138 ft 250 kts 239°
2026-04-21 03:34 33.84141 -118.67206 2046 ft 242 kts 242°
2026-04-21 03:34 33.83398 -118.68971 2108 ft 231 kts 244°
2026-04-21 03:35 33.82743 -118.70717 1978 ft 230 kts 247°
2026-04-21 03:35 33.82163 -118.72507 1866 ft 229 kts 250°